contact:dominique.lefevre@mio.osupytheas.fr, maurice.libes@osupytheas.fr, didier.mallarino@osupytheas.fr
Project:EMSO http://www.emso-fr.org/EMSO-France
Depth: 2436.0 m
Title:EMSO Ligure Ouest : Data MII capteur AQUADOPP
Date,Latitude,Longitude,X_East,Y_North,Z_Up,Amplitude_X,Amplitude_Y,Amplitude_Z,Batterie,SoundSpeed,Heading,Pitch,Roll,Pressure,TIS,Speed,Direction
, degrees North, degrees East, m.s-1, m.s-1,m.s-1, 1, 1, 1, Volt, m.s-1, degree, degree, degree, dbar, degree_C, m.s-1, degree
2023-05-23T00:04:03,42.805,6.029,0.008,-0.021,-0.046,103.0,103.0,101.0,13.4,1505.2,330.3,-0.8,1.8,2471.517,13.28,0.022,159.1
2023-05-23T00:07:03,42.805,6.029,0.017,0.015,-0.034,103.0,102.0,102.0,13.4,1505.2,341.9,-0.7,1.8,2471.503,13.28,0.022,48.6
2023-05-23T00:10:03,42.805,6.029,0.005,-0.014,-0.016,102.0,102.0,101.0,13.4,1505.2,335.5,-0.7,1.8,2471.465,13.29,0.014,160.4
2023-05-23T00:13:03,42.805,6.029,0.001,-0.01,-0.064,103.0,103.0,101.0,13.3,1505.2,345.4,-0.8,1.8,2471.476,13.29,0.01,174.3
2023-05-23T00:16:03,42.805,6.029,0.012,-0.035,-0.08,102.0,102.0,102.0,13.4,1505.2,319.8,-0.7,1.8,2471.421,13.29,0.037,161.1
2023-05-23T00:19:03,42.805,6.029,0.028,-0.037,-0.067,101.0,102.0,100.0,13.4,1505.2,334.3,-0.7,1.8,2471.418,13.29,0.046,142.9
2023-05-23T00:22:03,42.805,6.029,0.023,-0.023,-0.04,101.0,102.0,100.0,13.3,1505.2,343.4,-0.8,1.8,2471.459,13.29,0.032,135.0
2023-05-23T00:25:03,42.805,6.029,0.017,-0.006,-0.033,103.0,100.0,100.0,13.4,1505.2,320.5,-0.8,1.8,2471.426,13.29,0.018,109.4
2023-05-23T00:28:03,42.805,6.029,0.009,-0.007,-0.029,101.0,102.0,101.0,13.3,1505.2,332.9,-0.8,1.8,2471.442,13.29,0.011,127.9
2023-05-23T00:31:03,42.805,6.029,0.019,0.004,-0.031,101.0,102.0,101.0,13.4,1505.2,327.3,-0.7,1.8,2471.42,13.29,0.019,78.1
2023-05-23T00:34:03,42.805,6.029,0.005,-0.031,-0.041,102.0,101.0,100.0,13.4,1505.2,347.3,-0.8,1.8,2471.408,13.29,0.031,170.8
2023-05-23T00:37:03,42.805,6.029,0.012,-0.009,-0.042,103.0,102.0,101.0,13.4,1505.2,318.9,-0.7,1.8,2471.392,13.29,0.015,126.9
2023-05-23T00:40:03,42.805,6.029,0.005,-0.006,-0.033,102.0,103.0,101.0,13.4,1505.2,337.9,-0.8,1.8,2471.399,13.29,0.007,140.2
2023-05-23T00:43:03,42.805,6.029,-0.009,-0.019,-0.044,101.0,102.0,101.0,13.3,1505.2,338.2,-0.8,1.8,2471.428,13.29,0.021,205.3
2023-05-23T00:46:03,42.805,6.029,-0.013,-0.002,-0.034,102.0,102.0,101.0,13.4,1505.2,328.8,-0.7,1.8,2471.418,13.29,0.013,261.3
2023-05-23T00:49:03,42.805,6.029,0.015,0.001,-0.016,102.0,102.0,101.0,13.3,1505.2,339.1,-0.8,1.8,2471.394,13.29,0.015,86.2
2023-05-23T00:52:03,42.805,6.029,0.02,-0.009,-0.015,104.0,101.0,101.0,13.3,1505.2,318.7,-0.8,1.8,2471.387,13.29,0.021,114.2
2023-05-23T00:55:03,42.805,6.029,0.0,0.004,-0.026,102.0,102.0,101.0,13.4,1505.2,328.8,-0.8,1.8,2471.412,13.29,0.004,0.0
2023-05-23T00:58:03,42.805,6.029,0.029,0.003,-0.014,102.0,102.0,102.0,13.3,1505.2,328.3,-0.8,1.8,2471.439,13.29,0.029,84.1
2023-05-23T01:01:03,42.805,6.029,0.003,-0.009,-0.03,100.0,102.0,101.0,13.4,1505.2,346.8,-0.8,1.8,2471.381,13.29,0.009,161.6
2023-05-23T01:04:03,42.805,6.029,0.021,-0.019,-0.037,102.0,103.0,101.0,13.4,1505.2,321.2,-0.8,1.8,2471.411,13.29,0.028,132.1
2023-05-23T01:07:03,42.805,6.029,0.022,-0.003,-0.013,101.0,102.0,100.0,13.3,1505.2,341.2,-0.7,1.8,2471.379,13.29,0.022,97.8
2023-05-23T01:10:03,42.805,6.029,-0.011,0.004,-0.043,102.0,101.0,101.0,13.4,1505.2,330.4,-0.8,1.8,2471.392,13.29,0.011,290.0
2023-05-23T01:13:03,42.805,6.029,0.008,-0.005,-0.049,103.0,102.0,101.0,13.3,1505.2,344.2,-0.8,1.8,2471.395,13.29,0.009,122.0
2023-05-23T01:16:03,42.805,6.029,0.042,-0.029,-0.04,102.0,102.0,101.0,13.4,1505.2,322.3,-0.8,1.8,2471.387,13.29,0.051,124.6
2023-05-23T01:19:03,42.805,6.029,0.01,-0.008,-0.022,102.0,102.0,100.0,13.4,1505.2,337.9,-0.7,1.8,2471.386,13.29,0.012,128.7
2023-05-23T01:22:03,42.805,6.029,0.021,-0.004,-0.036,101.0,103.0,101.0,13.3,1505.2,325.4,-0.8,1.8,2471.401,13.29,0.021,100.8
2023-05-23T01:25:03,42.805,6.029,0.009,-0.008,-0.034,102.0,102.0,101.0,13.4,1505.2,344.2,-0.7,1.8,2471.391,13.29,0.012,131.6
2023-05-23T01:28:03,42.805,6.029,0.017,-0.013,-0.026,102.0,103.0,100.0,13.4,1505.2,330.6,-0.8,1.8,2471.396,13.29,0.021,127.4
2023-05-23T01:31:03,42.805,6.029,0.007,-0.013,-0.048,102.0,103.0,101.0,13.4,1505.2,335.5,-0.8,1.8,2471.383,13.29,0.014,151.7
2023-05-23T01:34:03,42.805,6.029,0.0,-0.02,-0.047,101.0,101.0,101.0,13.3,1505.2,339.3,-0.7,1.8,2471.392,13.29,0.02,180.0
2023-05-23T01:37:03,42.805,6.029,0.011,-0.029,-0.029,103.0,101.0,101.0,13.4,1505.2,334.9,-0.8,1.8,2471.365,13.29,0.031,159.2
2023-05-23T01:40:03,42.805,6.029,0.007,-0.014,-0.047,103.0,101.0,101.0,13.3,1505.2,333.9,-0.8,1.8,2471.37,13.29,0.015,153.4
2023-05-23T01:43:03,42.805,6.029,-0.004,-0.005,-0.021,103.0,102.0,100.0,13.4,1505.2,319.4,-0.7,1.8,2471.405,13.29,0.006,218.7
2023-05-23T01:46:03,42.805,6.029,0.037,-0.027,-0.025,103.0,102.0,101.0,13.3,1505.2,337.5,-0.7,1.9,2471.366,13.29,0.045,126.1
2023-05-23T01:49:03,42.805,6.029,-0.004,-0.015,-0.032,102.0,102.0,101.0,13.4,1505.2,333.4,-0.7,1.8,2471.388,13.29,0.015,194.9
2023-05-23T01:52:03,42.805,6.029,0.016,0.0,-0.01,104.0,101.0,102.0,13.4,1505.2,339.3,-0.8,1.8,2471.398,13.29,0.016,90.0
2023-05-23T01:55:03,42.805,6.029,0.001,-0.024,-0.024,103.0,101.0,101.0,13.4,1505.2,330.2,-0.8,1.8,2471.381,13.29,0.024,177.6
2023-05-23T01:58:03,42.805,6.029,0.006,-0.007,-0.022,103.0,103.0,102.0,13.3,1505.2,325.0,-0.8,1.8,2471.384,13.29,0.009,139.4
2023-05-23T02:04:03,42.805,6.029,0.0,-0.013,-0.044,102.0,101.0,102.0,13.4,1505.2,341.9,-0.8,1.8,2471.431,13.28,0.013,180.0
2023-05-23T02:07:03,42.805,6.029,0.006,-0.002,-0.007,103.0,102.0,102.0,13.4,1505.2,320.0,-0.8,1.8,2471.435,13.28,0.006,108.4
2023-05-23T02:10:03,42.805,6.029,0.011,-0.036,-0.039,103.0,102.0,102.0,13.4,1505.2,337.5,-0.7,1.8,2471.394,13.28,0.037,163.0
2023-05-23T02:13:03,42.805,6.029,0.028,-0.027,0.014,102.0,102.0,101.0,13.4,1505.2,326.8,-0.7,1.8,2471.379,13.29,0.038,134.0
2023-05-23T02:16:03,42.805,6.029,0.008,0.01,0.002,102.0,102.0,100.0,13.4,1505.2,342.7,-0.7,1.8,2471.388,13.29,0.012,38.7
2023-05-23T02:19:03,42.805,6.029,0.012,-0.019,-0.028,103.0,103.0,101.0,13.4,1505.2,342.8,-0.8,1.8,2471.339,13.29,0.022,147.7
2023-05-23T02:22:03,42.805,6.029,0.011,-0.016,-0.045,103.0,102.0,101.0,13.3,1505.2,318.4,-0.8,1.8,2471.382,13.29,0.019,145.5
2023-05-23T02:25:03,42.805,6.029,0.009,-0.013,-0.015,102.0,102.0,100.0,13.4,1505.2,333.4,-0.8,1.8,2471.387,13.29,0.015,145.3
2023-05-23T02:28:03,42.805,6.029,-0.003,-0.008,-0.029,104.0,100.0,101.0,13.4,1505.2,326.0,-0.8,1.8,2471.372,13.29,0.008,200.6
2023-05-23T02:31:03,42.805,6.029,0.023,-0.008,-0.039,103.0,102.0,100.0,13.3,1505.2,327.5,-0.8,1.8,2471.385,13.29,0.024,109.2
2023-05-23T02:34:03,42.805,6.029,0.0,-0.003,-0.029,100.0,102.0,100.0,13.4,1505.2,343.4,-0.8,1.8,2471.383,13.29,0.003,180.0
2023-05-23T02:37:03,42.805,6.029,0.018,-0.023,-0.015,103.0,100.0,101.0,13.4,1505.2,335.4,-0.7,1.8,2471.366,13.29,0.029,142.0
2023-05-23T02:40:03,42.805,6.029,0.004,-0.022,-0.043,101.0,103.0,101.0,13.4,1505.2,325.8,-0.7,1.8,2471.347,13.29,0.022,169.7
2023-05-23T02:43:03,42.805,6.029,-0.002,-0.006,-0.039,102.0,102.0,101.0,13.3,1505.2,337.1,-0.8,1.8,2471.331,13.29,0.006,198.4
2023-05-23T02:46:03,42.805,6.029,0.0,-0.031,-0.056,103.0,102.0,102.0,13.4,1505.2,329.7,-0.8,1.8,2471.383,13.29,0.03,180.0
2023-05-23T02:49:03,42.805,6.029,0.002,-0.014,-0.032,102.0,102.0,100.0,13.4,1505.2,344.5,-0.7,1.8,2471.337,13.29,0.014,171.9
2023-05-23T02:52:03,42.805,6.029,0.006,0.008,-0.043,103.0,102.0,100.0,13.4,1505.2,344.6,-0.8,1.8,2471.366,13.29,0.01,36.9
2023-05-23T02:55:03,42.805,6.029,0.016,-0.011,-0.062,101.0,102.0,101.0,13.4,1505.2,322.9,-0.8,1.8,2471.316,13.29,0.019,124.5
2023-05-23T02:58:03,42.805,6.029,0.035,-0.028,-0.053,102.0,102.0,101.0,13.3,1505.2,338.0,-0.8,1.8,2471.334,13.29,0.044,128.7
2023-05-23T03:04:03,42.805,6.029,0.022,-0.018,-0.026,101.0,100.0,102.0,13.3,1505.2,328.2,-0.8,1.8,2471.378,13.28,0.028,129.3
2023-05-23T03:07:03,42.805,6.029,0.032,-0.034,-0.061,102.0,103.0,101.0,13.3,1505.2,318.9,-0.7,1.8,2471.361,13.28,0.046,136.7
2023-05-23T03:10:03,42.805,6.029,0.008,-0.014,-0.039,101.0,102.0,101.0,13.4,1505.2,332.4,-0.8,1.8,2471.371,13.29,0.016,150.3
2023-05-23T03:13:03,42.805,6.029,0.002,-0.008,-0.029,108.0,101.0,101.0,13.4,1505.2,332.5,-0.8,1.8,2471.381,13.29,0.008,166.0
2023-05-23T03:16:03,42.805,6.029,-0.01,-0.007,-0.035,101.0,101.0,101.0,13.4,1505.2,324.9,-0.8,1.9,2471.35,13.29,0.012,235.0
2023-05-23T03:19:03,42.805,6.029,0.028,-0.015,-0.037,101.0,101.0,101.0,13.3,1505.2,334.4,-0.8,1.8,2471.369,13.29,0.031,118.2
2023-05-23T03:22:03,42.805,6.029,0.009,0.007,0.005,103.0,102.0,100.0,13.3,1505.2,326.3,-0.8,1.8,2471.369,13.29,0.011,52.1
2023-05-23T03:25:03,42.805,6.029,0.017,0.003,-0.021,105.0,102.0,101.0,13.4,1505.2,336.2,-0.8,1.8,2471.359,13.29,0.017,80.0
2023-05-23T03:28:03,42.805,6.029,0.031,-0.007,-0.022,101.0,102.0,101.0,13.4,1505.2,328.3,-0.8,1.8,2471.383,13.29,0.031,102.7
2023-05-23T03:31:03,42.805,6.029,0.008,-0.008,-0.02,101.0,102.0,101.0,13.4,1505.2,343.8,-0.8,1.8,2471.327,13.29,0.011,135.0
2023-05-23T03:34:03,42.805,6.029,0.021,-0.006,-0.03,102.0,101.0,103.0,13.4,1505.2,327.0,-0.8,1.8,2471.304,13.29,0.021,105.9
2023-05-23T03:37:03,42.805,6.029,0.006,-0.01,-0.033,102.0,101.0,101.0,13.4,1505.2,339.4,-0.7,1.8,2471.341,13.29,0.011,149.0
2023-05-23T03:40:03,42.805,6.029,-0.005,-0.008,-0.044,101.0,102.0,100.0,13.4,1505.2,340.2,-0.8,1.8,2471.34,13.29,0.009,212.0
2023-05-23T03:43:03,42.805,6.029,0.004,-0.021,-0.045,102.0,102.0,101.0,13.4,1505.2,340.4,-0.8,1.8,2471.355,13.29,0.021,169.2
2023-05-23T03:46:03,42.805,6.029,-0.006,-0.005,-0.04,103.0,102.0,101.0,13.4,1505.2,343.1,-0.8,1.8,2471.331,13.29,0.007,230.2
2023-05-23T03:49:03,42.805,6.029,0.022,-0.005,-0.05,103.0,101.0,102.0,13.4,1505.2,329.2,-0.8,1.8,2471.303,13.29,0.022,102.8
2023-05-23T03:52:03,42.805,6.029,0.013,-0.052,-0.078,101.0,101.0,100.0,13.3,1505.2,338.4,-0.8,1.8,2471.315,13.29,0.053,166.0
2023-05-23T03:55:03,42.805,6.029,-0.001,-0.024,-0.065,101.0,101.0,101.0,13.4,1505.2,339.9,-0.8,1.9,2471.335,13.29,0.024,182.4
2023-05-23T03:58:03,42.805,6.029,0.006,-0.009,-0.057,103.0,101.0,100.0,13.4,1505.2,316.9,-0.8,1.8,2471.311,13.29,0.01,146.3
2023-05-23T04:04:03,42.805,6.029,-0.001,0.015,-0.007,101.0,102.0,101.0,13.3,1505.2,328.7,-0.8,1.8,2471.374,13.28,0.015,356.2
2023-05-23T04:07:03,42.805,6.029,0.014,-0.025,-0.043,102.0,102.0,100.0,13.3,1505.2,338.2,-0.8,1.8,2471.353,13.28,0.028,150.7
2023-05-23T04:10:03,42.805,6.029,0.017,-0.014,-0.039,102.0,102.0,103.0,13.3,1505.2,328.2,-0.8,1.8,2471.371,13.29,0.022,129.5
2023-05-23T04:13:03,42.805,6.029,0.0,-0.019,-0.012,102.0,101.0,101.0,13.4,1505.2,322.7,-0.8,1.8,2471.384,13.29,0.019,180.0
2023-05-23T04:16:03,42.805,6.029,0.003,-0.015,-0.026,101.0,101.0,101.0,13.4,1505.2,344.2,-0.8,1.8,2471.333,13.29,0.015,168.7
2023-05-23T04:19:03,42.805,6.029,0.01,-0.002,-0.033,104.0,101.0,101.0,13.4,1505.2,330.6,-0.8,1.8,2471.375,13.29,0.01,101.3
2023-05-23T04:22:03,42.805,6.029,0.01,0.003,-0.017,101.0,102.0,101.0,13.3,1505.2,324.8,-0.8,1.8,2471.336,13.29,0.01,73.3
2023-05-23T04:25:03,42.805,6.029,0.0,-0.013,-0.036,102.0,102.0,101.0,13.3,1505.2,347.0,-0.8,1.8,2471.304,13.29,0.013,180.0
2023-05-23T04:28:03,42.805,6.029,-0.008,0.002,-0.024,102.0,102.0,101.0,13.3,1505.2,332.2,-0.8,1.8,2471.341,13.29,0.008,284.0
2023-05-23T04:31:03,42.805,6.029,-0.007,-0.002,-0.006,102.0,102.0,101.0,13.3,1505.2,324.4,-0.8,1.8,2471.346,13.29,0.007,254.1
2023-05-23T04:34:03,42.805,6.029,0.01,0.023,-0.025,102.0,101.0,102.0,13.3,1505.2,329.8,-0.8,1.8,2471.319,13.29,0.025,23.5
2023-05-23T04:37:03,42.805,6.029,0.004,-0.022,-0.034,100.0,102.0,101.0,13.4,1505.2,330.0,-0.8,1.8,2471.337,13.29,0.022,169.7
2023-05-23T04:40:03,42.805,6.029,-0.007,-0.002,-0.034,102.0,103.0,101.0,13.4,1505.2,343.8,-0.7,1.8,2471.357,13.29,0.007,254.1
2023-05-23T04:43:03,42.805,6.029,0.007,-0.007,-0.021,102.0,101.0,102.0,13.4,1505.2,326.3,-0.8,1.8,2471.308,13.29,0.009,135.0
2023-05-23T04:46:03,42.805,6.029,-0.002,-0.007,-0.021,103.0,102.0,102.0,13.4,1505.2,336.0,-0.7,1.8,2471.333,13.29,0.007,195.9
2023-05-23T04:49:03,42.805,6.029,-0.001,-0.001,-0.012,103.0,103.0,101.0,13.3,1505.2,332.3,-0.8,1.8,2471.36,13.29,0.001,225.0
2023-05-23T04:52:03,42.805,6.029,0.013,0.008,-0.022,103.0,102.0,101.0,13.4,1505.2,348.0,-0.8,1.8,2471.293,13.29,0.015,58.4
2023-05-23T04:55:03,42.805,6.029,0.006,-0.018,-0.022,103.0,101.0,101.0,13.4,1505.2,329.4,-0.8,1.8,2471.308,13.29,0.018,161.6
2023-05-23T04:58:03,42.805,6.029,0.027,-0.018,-0.015,104.0,102.0,100.0,13.3,1505.2,327.4,-0.8,1.8,2471.344,13.29,0.032,123.7
2023-05-23T05:04:03,42.805,6.029,0.012,0.002,-0.006,103.0,99.0,101.0,13.4,1505.2,320.0,-0.8,1.8,2471.375,13.28,0.012,80.5
2023-05-23T05:07:03,42.805,6.029,0.018,-0.005,0.0,102.0,102.0,101.0,13.3,1505.2,338.2,-0.8,1.8,2471.385,13.28,0.018,105.5
2023-05-23T05:10:03,42.805,6.029,0.0,0.004,0.0,102.0,101.0,101.0,13.3,1505.2,324.6,-0.8,1.8,2471.376,13.29,0.004,0.0
2023-05-23T05:13:03,42.805,6.029,0.008,-0.026,-0.033,103.0,101.0,102.0,13.3,1505.2,346.2,-0.8,1.8,2471.336,13.29,0.027,162.9
2023-05-23T05:16:03,42.805,6.029,0.017,0.003,-0.003,101.0,102.0,101.0,13.4,1505.2,325.3,-0.8,1.8,2471.349,13.29,0.017,80.0
2023-05-23T05:19:03,42.805,6.029,0.002,-0.021,-0.049,103.0,102.0,101.0,13.4,1505.2,320.4,-0.8,1.8,2471.355,13.29,0.021,174.6
2023-05-23T05:22:03,42.805,6.029,0.024,-0.012,-0.029,103.0,102.0,101.0,13.3,1505.2,332.9,-0.7,1.8,2471.334,13.29,0.026,116.6
2023-05-23T05:25:03,42.805,6.029,0.006,-0.007,-0.032,102.0,102.0,101.0,13.4,1505.2,326.9,-0.7,1.8,2471.344,13.29,0.009,139.4
2023-05-23T05:28:03,42.805,6.029,0.002,0.013,-0.03,103.0,102.0,101.0,13.3,1505.2,346.8,-0.8,1.8,2471.337,13.29,0.013,8.7
2023-05-23T05:31:03,42.805,6.029,0.011,0.004,-0.046,102.0,102.0,101.0,13.4,1505.2,320.1,-0.8,1.8,2471.346,13.29,0.011,70.0
2023-05-23T05:34:03,42.805,6.029,0.01,-0.012,-0.035,103.0,103.0,102.0,13.3,1505.2,320.7,-0.8,1.8,2471.322,13.29,0.015,140.2
2023-05-23T05:37:03,42.805,6.029,0.017,-0.012,-0.039,103.0,102.0,101.0,13.3,1505.2,327.5,-0.7,1.8,2471.327,13.29,0.02,125.2
2023-05-23T05:40:03,42.805,6.029,0.027,0.005,-0.009,102.0,101.0,102.0,13.4,1505.2,334.8,-0.7,1.8,2471.338,13.29,0.027,79.5
2023-05-23T05:43:03,42.805,6.029,0.018,-0.009,-0.012,102.0,102.0,101.0,13.4,1505.2,328.5,-0.8,1.8,2471.35,13.29,0.02,116.6
2023-05-23T05:46:03,42.805,6.029,-0.007,-0.01,-0.035,102.0,102.0,100.0,13.3,1505.2,326.8,-0.8,1.8,2471.341,13.29,0.012,215.0
2023-05-23T05:49:03,42.805,6.029,-0.01,-0.01,-0.014,102.0,102.0,102.0,13.4,1505.2,330.5,-0.8,1.8,2471.341,13.29,0.014,225.0
2023-05-23T05:52:03,42.805,6.029,0.017,-0.028,-0.033,102.0,101.0,101.0,13.3,1505.2,340.8,-0.7,1.8,2471.326,13.29,0.032,148.7
2023-05-23T05:55:04,42.805,6.029,0.012,0.001,-0.014,102.0,101.0,102.0,13.4,1505.2,345.9,-0.7,1.8,2471.324,13.29,0.012,85.2
2023-05-23T05:58:03,42.805,6.029,0.012,0.0,0.0,102.0,102.0,101.0,13.4,1505.2,320.3,-0.8,1.8,2471.346,13.29,0.012,90.0
2023-05-23T06:04:03,42.805,6.029,0.004,-0.006,0.005,102.0,102.0,101.0,13.4,1505.2,335.5,-0.8,1.8,2471.388,13.28,0.007,146.3
2023-05-23T06:07:03,42.805,6.029,0.0,-0.001,-0.017,103.0,102.0,100.0,13.3,1505.2,340.2,-0.8,1.8,2471.41,13.28,0.001,180.0
2023-05-23T06:10:03,42.805,6.029,0.005,-0.015,-0.062,103.0,102.0,101.0,13.4,1505.2,333.9,-0.7,1.8,2471.369,13.29,0.015,161.6
2023-05-23T06:13:03,42.805,6.029,0.005,0.003,-0.043,102.0,102.0,101.0,13.4,1505.2,343.9,-0.8,1.8,2471.38,13.29,0.005,59.0
2023-05-23T06:16:03,42.805,6.029,0.002,-0.003,-0.017,102.0,102.0,101.0,13.4,1505.2,319.4,-0.7,1.8,2471.355,13.29,0.003,146.3
2023-05-23T06:19:03,42.805,6.029,-0.025,-0.007,-0.078,104.0,102.0,101.0,13.4,1505.2,329.1,-0.8,1.8,2471.319,13.29,0.025,254.4
2023-05-23T06:22:03,42.805,6.029,0.023,-0.002,0.001,102.0,102.0,101.0,13.3,1505.2,326.3,-0.8,1.8,2471.311,13.29,0.023,95.0
2023-05-23T06:25:03,42.805,6.029,0.013,0.014,-0.032,103.0,102.0,101.0,13.4,1505.2,344.2,-0.8,1.8,2471.352,13.29,0.019,42.9
2023-05-23T06:28:03,42.805,6.029,0.011,-0.014,-0.028,102.0,102.0,100.0,13.3,1505.2,344.0,-0.8,1.8,2471.35,13.29,0.017,141.8
2023-05-23T06:31:03,42.805,6.029,0.027,-0.013,-0.044,102.0,102.0,101.0,13.4,1505.2,342.2,-0.8,1.8,2471.373,13.29,0.029,115.7
2023-05-23T06:34:03,42.805,6.029,0.033,-0.006,-0.025,100.0,104.0,101.0,13.4,1505.2,321.3,-0.8,1.8,2471.379,13.29,0.033,100.3
2023-05-23T06:37:03,42.805,6.029,0.012,-0.006,-0.01,103.0,102.0,100.0,13.3,1505.2,332.4,-0.8,1.8,2471.321,13.29,0.013,116.6
2023-05-23T06:40:03,42.805,6.029,0.007,0.005,-0.003,102.0,103.0,102.0,13.3,1505.2,347.0,-0.8,1.8,2471.363,13.29,0.008,54.5
2023-05-23T06:43:03,42.805,6.029,0.015,-0.009,-0.029,103.0,103.0,101.0,13.4,1505.2,319.4,-0.8,1.8,2471.361,13.29,0.017,121.0
2023-05-23T06:46:03,42.805,6.029,-0.001,0.003,-0.022,103.0,102.0,102.0,13.3,1505.2,333.9,-0.7,1.8,2471.343,13.29,0.003,341.6
2023-05-23T06:49:03,42.805,6.029,0.008,-0.015,-0.046,103.0,103.0,100.0,13.4,1505.2,329.4,-0.8,1.8,2471.314,13.29,0.017,151.9
2023-05-23T06:52:03,42.805,6.029,0.009,-0.004,-0.014,104.0,102.0,101.0,13.4,1505.2,335.0,-0.8,1.8,2471.345,13.29,0.009,114.0
2023-05-23T06:55:03,42.805,6.029,0.004,-0.006,-0.035,103.0,104.0,101.0,13.3,1505.2,329.2,-0.8,1.8,2471.36,13.29,0.007,146.3
2023-05-23T06:58:03,42.805,6.029,0.015,-0.035,-0.019,103.0,103.0,100.0,13.3,1505.2,343.4,-0.8,1.9,2471.348,13.29,0.038,156.8
2023-05-23T07:04:03,42.805,6.029,-0.004,0.0,-0.06,102.0,102.0,101.0,13.3,1505.2,321.7,-0.7,1.8,2471.38,13.28,0.004,270.0
2023-05-23T07:07:03,42.805,6.029,0.012,-0.026,-0.055,102.0,102.0,102.0,13.3,1505.2,321.2,-0.7,1.8,2471.396,13.28,0.028,155.2
2023-05-23T07:10:03,42.805,6.029,0.012,0.004,-0.022,103.0,102.0,101.0,13.4,1505.2,323.7,-0.8,1.8,2471.356,13.29,0.012,71.6
2023-05-23T07:13:03,42.805,6.029,0.015,-0.015,-0.042,102.0,102.0,101.0,13.4,1505.2,326.0,-0.7,1.8,2471.408,13.29,0.021,135.0
2023-05-23T07:16:03,42.805,6.029,0.002,-0.004,-0.017,103.0,102.0,102.0,13.4,1505.2,345.6,-0.8,1.8,2471.421,13.29,0.004,153.4
2023-05-23T07:19:03,42.805,6.029,0.012,0.001,0.007,103.0,102.0,101.0,13.4,1505.2,320.6,-0.8,1.8,2471.387,13.29,0.012,85.2
2023-05-23T07:22:03,42.805,6.029,-0.005,-0.006,-0.038,102.0,101.0,101.0,13.3,1505.2,333.4,-0.7,1.8,2471.371,13.29,0.007,219.8
2023-05-23T07:25:03,42.805,6.029,0.008,0.001,-0.01,101.0,102.0,102.0,13.3,1505.2,329.4,-0.8,1.8,2471.362,13.29,0.008,82.9
2023-05-23T07:28:03,42.805,6.029,0.001,-0.005,-0.047,102.0,102.0,101.0,13.4,1505.2,347.0,-0.8,1.8,2471.38,13.29,0.005,168.7
2023-05-23T07:31:03,42.805,6.029,0.014,0.0,-0.022,102.0,102.0,101.0,13.4,1505.2,341.5,-0.7,1.8,2471.374,13.29,0.014,90.0
2023-05-23T07:34:03,42.805,6.029,0.021,-0.013,-0.052,103.0,102.0,100.0,13.3,1505.2,318.8,-0.8,1.8,2471.39,13.29,0.024,121.8
2023-05-23T07:37:03,42.805,6.029,0.01,0.0,-0.007,102.0,103.0,101.0,13.3,1505.2,340.4,-0.8,1.8,2471.421,13.29,0.01,90.0
2023-05-23T07:40:03,42.805,6.029,0.001,-0.016,-0.044,102.0,101.0,101.0,13.3,1505.2,324.3,-0.7,1.8,2471.389,13.29,0.016,176.4
2023-05-23T07:43:03,42.805,6.029,0.028,0.01,0.003,102.0,102.0,103.0,13.3,1505.2,337.2,-0.8,1.8,2471.392,13.29,0.029,70.4
2023-05-23T07:46:03,42.805,6.029,0.0,-0.007,-0.05,103.0,102.0,101.0,13.4,1505.2,330.7,-0.7,1.8,2471.405,13.29,0.007,180.0
2023-05-23T07:49:03,42.805,6.029,0.008,-0.011,-0.044,101.0,103.0,102.0,13.4,1505.2,318.2,-0.7,1.8,2471.411,13.29,0.013,144.0
2023-05-23T07:52:03,42.805,6.029,0.014,-0.019,-0.009,101.0,102.0,102.0,13.4,1505.2,323.8,-0.8,1.8,2471.409,13.29,0.023,143.6
2023-05-23T07:55:03,42.805,6.029,-0.01,0.009,-0.026,104.0,103.0,101.0,13.4,1505.2,339.3,-0.8,1.8,2471.423,13.29,0.013,312.0
2023-05-23T07:58:03,42.805,6.029,0.029,-0.014,-0.002,103.0,102.0,102.0,13.4,1505.2,340.0,-0.8,1.8,2471.409,13.29,0.032,115.8
2023-05-23T08:04:03,42.805,6.029,-0.005,0.004,-0.01,103.0,102.0,101.0,13.4,1505.2,324.9,-0.8,1.8,2471.411,13.28,0.006,308.7
2023-05-23T08:07:03,42.805,6.029,0.02,-0.03,-0.034,102.0,102.0,101.0,13.4,1505.2,344.5,-0.8,1.8,2471.434,13.28,0.036,146.3
2023-05-23T08:10:03,42.805,6.029,0.013,-0.018,-0.036,102.0,101.0,101.0,13.4,1505.2,319.9,-0.8,1.8,2471.465,13.29,0.022,144.2
2023-05-23T08:13:03,42.805,6.029,0.013,-0.015,-0.021,102.0,102.0,101.0,13.4,1505.2,340.1,-0.7,1.8,2471.411,13.29,0.019,139.1
2023-05-23T08:16:03,42.805,6.029,0.013,-0.015,-0.046,102.0,102.0,101.0,13.4,1505.2,340.4,-0.8,1.8,2471.44,13.29,0.019,139.1
2023-05-23T08:19:03,42.805,6.029,0.0,0.001,-0.014,102.0,102.0,101.0,13.4,1505.2,320.4,-0.8,1.8,2471.425,13.29,0.001,0.0
2023-05-23T08:22:03,42.805,6.029,0.025,-0.016,-0.013,102.0,102.0,101.0,13.4,1505.2,340.1,-0.8,1.8,2471.39,13.29,0.029,122.6
2023-05-23T08:25:03,42.805,6.029,0.006,-0.003,-0.031,101.0,102.0,101.0,13.3,1505.2,335.5,-0.7,1.8,2471.4,13.29,0.006,116.6
2023-05-23T08:28:03,42.805,6.029,-0.015,-0.011,-0.048,103.0,102.0,100.0,13.3,1505.2,317.5,-0.7,1.8,2471.409,13.29,0.018,233.7
2023-05-23T08:31:03,42.805,6.029,-0.012,-0.001,-0.031,103.0,102.0,102.0,13.4,1505.2,335.9,-0.8,1.8,2471.433,13.29,0.012,265.2
2023-05-23T08:34:03,42.805,6.029,0.002,-0.025,-0.033,103.0,101.0,102.0,13.4,1505.2,339.1,-0.8,1.8,2471.402,13.29,0.025,175.4
2023-05-23T08:37:03,42.805,6.029,0.012,-0.02,-0.072,103.0,102.0,101.0,13.4,1505.2,332.9,-0.7,1.8,2471.418,13.29,0.023,149.0
2023-05-23T08:40:03,42.805,6.029,0.002,-0.026,-0.017,103.0,102.0,101.0,13.3,1505.2,338.4,-0.8,1.8,2471.413,13.29,0.026,175.6
2023-05-23T08:43:03,42.805,6.029,-0.009,-0.02,-0.041,102.0,102.0,101.0,13.4,1505.2,329.3,-0.7,1.8,2471.405,13.29,0.021,204.2
2023-05-23T08:46:03,42.805,6.029,0.007,-0.014,-0.019,102.0,101.0,102.0,13.4,1505.2,322.3,-0.7,1.8,2471.445,13.29,0.015,153.4
2023-05-23T08:49:03,42.805,6.029,0.011,-0.019,-0.043,102.0,102.0,101.0,13.4,1505.2,331.3,-0.8,1.8,2471.371,13.29,0.021,149.9
2023-05-23T08:52:03,42.805,6.029,0.025,-0.01,-0.034,102.0,102.0,101.0,13.4,1505.2,327.1,-0.8,1.8,2471.421,13.29,0.026,111.8
2023-05-23T08:55:03,42.805,6.029,0.019,-0.01,0.017,104.0,101.0,100.0,13.4,1505.2,342.3,-0.7,1.8,2471.409,13.29,0.021,117.8
2023-05-23T08:58:03,42.805,6.029,-0.016,-0.034,-0.051,103.0,102.0,100.0,13.3,1505.2,321.3,-0.7,1.8,2471.421,13.29,0.037,205.2
2023-05-23T09:04:03,42.805,6.029,-0.003,-0.003,-0.02,103.0,101.0,101.0,13.4,1505.2,335.3,-0.7,1.8,2471.427,13.28,0.004,225.0
2023-05-23T09:07:03,42.805,6.029,-0.011,0.008,-0.013,103.0,102.0,101.0,13.4,1505.2,337.9,-0.8,1.8,2471.454,13.28,0.013,306.0
2023-05-23T09:10:03,42.805,6.029,0.002,-0.033,-0.064,101.0,102.0,101.0,13.4,1505.2,325.8,-0.8,1.8,2471.429,13.29,0.033,176.5
2023-05-23T09:13:03,42.805,6.029,0.015,-0.012,-0.032,102.0,102.0,101.0,13.3,1505.2,325.6,-0.8,1.8,2471.436,13.29,0.019,128.7
2023-05-23T09:16:03,42.805,6.029,-0.017,-0.011,-0.033,101.0,102.0,102.0,13.3,1505.2,328.5,-0.8,1.8,2471.413,13.29,0.02,237.1
2023-05-23T09:19:03,42.805,6.029,0.008,-0.015,-0.027,102.0,102.0,101.0,13.3,1505.2,329.2,-0.7,1.8,2471.435,13.29,0.017,151.9
2023-05-23T09:22:03,42.805,6.029,0.006,-0.012,-0.049,101.0,102.0,101.0,13.4,1505.2,340.4,-0.8,1.8,2471.45,13.29,0.013,153.4
2023-05-23T09:25:03,42.805,6.029,0.008,-0.003,-0.023,101.0,101.0,102.0,13.4,1505.2,329.5,-0.8,1.8,2471.414,13.29,0.008,110.6
2023-05-23T09:28:03,42.805,6.029,-0.013,0.0,-0.031,102.0,101.0,102.0,13.4,1505.2,338.4,-0.7,1.8,2471.401,13.29,0.013,270.0
2023-05-23T09:31:03,42.805,6.029,-0.004,-0.006,-0.05,103.0,103.0,101.0,13.3,1505.2,342.5,-0.8,1.8,2471.412,13.29,0.007,213.7
2023-05-23T09:34:03,42.805,6.029,0.0,-0.01,-0.005,102.0,103.0,100.0,13.3,1505.2,334.4,-0.8,1.8,2471.393,13.29,0.01,180.0
2023-05-23T09:37:03,42.805,6.029,0.021,-0.013,-0.026,102.0,101.0,101.0,13.4,1505.2,331.9,-0.8,1.8,2471.417,13.29,0.024,121.8
2023-05-23T09:40:03,42.805,6.029,-0.006,-0.002,-0.004,102.0,102.0,101.0,13.4,1505.2,338.8,-0.8,1.8,2471.391,13.29,0.006,251.6
2023-05-23T09:43:03,42.805,6.029,-0.003,-0.016,0.004,103.0,101.0,102.0,13.4,1505.2,325.4,-0.8,1.8,2471.443,13.29,0.016,190.6
2023-05-23T09:46:03,42.805,6.029,-0.005,0.009,-0.006,103.0,102.0,101.0,13.4,1505.2,339.7,-0.8,1.8,2471.401,13.29,0.01,330.9
2023-05-23T09:49:03,42.805,6.029,0.006,-0.023,-0.028,103.0,102.0,101.0,13.4,1505.2,327.3,-0.8,1.8,2471.367,13.29,0.023,165.4
2023-05-23T09:52:03,42.805,6.029,0.015,-0.007,-0.047,103.0,103.0,100.0,13.4,1505.2,341.5,-0.8,1.8,2471.42,13.29,0.016,115.0